Theta_e
316 317 317 317 318 318 318 319 319 319 319 319 320 320 320 320 321 325 332 339 343 340 345 351 360 350 350 351 349 345 351 346 344 345 348 347 347 346 343 344 346 344 345 346 344
314 315 316 316 317 318 318 318 319 319 319 319 320 320 320 320 321 327 333 331 335 335 352 356 352 350 350 346 345 345 348 345 344 343 346 346 347 345 343 343 343 343 345 345 344
312 313 314 315 316 317 319 319 319 320 320 319 319 321 320 320 324 333 333 332 334 338 355 354 349 346 347 345 344 343 345 344 342 341 342 346 346 344 344 345 343 344 345 345 345
311 312 312 313 314 316 318 319 320 320 320 320 319 321 321 320 334 337 332 331 333 335 350 349 345 344 343 342 343 345 343 343 341 340 340 344 344 345 345 344 343 343 342 343 344
310 311 311 312 313 314 316 318 320 321 321 320 320 321 322 329 327 333 327 329 331 333 348 347 343 344 344 345 344 345 345 343 342 341 342 340 341 343 342 344 344 343 342 342 342
310 310 311 311 312 313 315 317 320 321 322 321 321 321 322 328 328 331 328 328 334 340 344 342 342 343 345 344 344 342 344 344 344 343 342 344 341 342 341 340 343 344 342 341 342
311 310 311 311 312 313 314 316 318 321 322 321 322 323 329 329 329 330 335 334 336 342 343 339 338 341 344 346 344 343 343 345 345 343 344 342 344 345 342 339 341 343 342 342 342
317 314 312 311 312 313 314 316 317 321 323 322 323 324 331 329 327 328 332 337 337 343 342 338 336 338 343 343 344 342 344 347 345 345 347 347 349 345 342 340 340 342 342 344 344
320 320 316 312 312 313 314 315 318 322 323 323 323 332 331 330 328 326 331 336 339 341 342 339 335 337 344 347 347 347 352 349 347 345 348 349 352 346 344 342 340 341 342 343 343
321 321 320 314 312 313 314 316 320 323 324 324 323 333 331 330 329 325 328 335 338 340 340 338 336 340 344 346 355 351 348 347 351 345 349 345 345 351 346 345 342 341 341 343 344
321 321 321 317 313 313 316 328 333 333 330 331 332 327 330 329 327 326 328 332 334 338 338 337 338 341 343 347 347 346 347 350 350 345 348 353 352 351 348 347 346 343 342 343 344
322 321 322 319 313 314 325 330 327 326 328 330 330 331 330 330 330 327 328 330 333 337 337 337 337 338 340 346 346 347 348 350 351 350 346 348 348 351 351 349 348 347 345 343 343
321 321 322 319 314 319 320 326 326 326 328 328 327 328 328 330 329 329 327 329 330 332 334 336 337 336 337 342 343 344 343 345 346 346 344 346 349 351 351 350 349 349 347 345 343
321 320 321 321 321 320 323 328 325 328 330 331 329 328 327 327 329 328 327 329 330 330 331 334 336 336 335 339 340 341 342 344 342 342 347 346 350 351 348 347 350 349 349 347 344
320 319 321 319 314 320 321 319 324 328 337 332 331 328 328 328 329 328 329 327 329 329 330 332 334 335 335 336 337 339 342 342 342 341 347 347 347 354 346 352 351 350 349 348 345
319 319 320 322 320 319 318 318 325 333 333 334 333 331 329 328 329 330 329 327 327 329 330 330 332 334 334 335 335 337 339 341 341 341 343 342 349 350 350 347 348 349 349 348 347
318 318 319 320 324 322 318 321 332 332 332 332 333 329 329 328 330 330 329 326 326 326 327 328 329 332 333 333 334 335 337 339 341 341 343 340 350 348 347 344 344 344 348 349 348
316 318 321 320 322 321 320 325 333 333 334 333 333 330 328 329 329 330 329 327 327 328 328 328 327 328 332 332 332 333 334 337 344 341 339 341 350 347 343 343 343 346 348 347 348
314 320 324 328 323 320 322 326 331 332 332 332 334 332 330 329 330 330 330 329 329 328 328 329 329 331 330 331 330 331 334 335 337 338 342 342 345 343 342 340 340 339 346 346 349
314 323 325 327 320 318 322 325 329 330 331 332 332 334 333 332 330 331 330 331 331 331 330 330 330 331 331 330 330 329 332 333 335 340 343 339 342 345 346 343 341 341 341 344 347
318 326 328 326 323 321 324 326 329 329 329 330 330 332 334 334 333 331 331 332 331 331 332 331 331 331 331 329 328 328 328 330 331 333 338 343 342 339 346 346 335 337 336 344 346
321 326 325 324 326 326 326 327 327 328 328 329 329 331 333 335 335 335 331 332 332 331 330 331 330 330 331 331 330 329 329 329 331 333 335 337 336 335 336 335 334 333 336 341 345
320 323 322 322 325 327 328 329 328 328 327 327 328 328 330 333 335 335 332 333 332 331 331 331 329 329 331 332 331 329 329 329 329 330 333 334 337 339 336 336 334 333 334 342 344
323 324 325 326 325 326 328 331 333 332 332 329 328 329 329 331 333 335 334 333 332 331 331 332 332 330 331 333 332 330 329 329 328 329 328 330 333 336 334 336 336 334 334 340 343
324 325 324 325 327 326 327 327 328 330 331 332 331 329 329 331 333 334 334 334 333 331 332 332 334 334 332 333 334 332 330 329 328 329 329 330 331 333 336 336 336 336 335 344 344
320 320 319 320 319 321 320 323 324 324 326 329 332 332 331 329 331 336 336 338 337 336 333 334 333 333 334 333 334 331 330 330 328 329 330 330 331 333 333 333 333 333 334 343 345
318 317 318 320 320 321 321 323 324 327 326 328 330 332 333 332 331 330 331 331 335 337 337 334 334 333 334 333 334 331 330 329 329 329 330 330 331 332 332 335 337 335 335 336 345
Wind_Speed
17 17 16 16 16 15 15 14 13 12 12 12 11 9 10 10 8 7 5 6 3 4 8 10 14 14 14 19 11 8 4 9 14 12 8 6 13 18 18 18 19 12 25 29 28
18 18 17 17 16 16 15 16 14 12 11 12 11 9 9 10 10 12 13 9 7 5 10 14 18 12 19 19 19 14 3 13 13 15 12 14 14 15 14 14 11 24 25 26 26
18 19 19 18 17 17 16 15 15 13 11 10 11 9 8 8 10 13 17 13 9 4 15 19 21 16 8 9 6 14 10 14 14 16 17 14 14 15 16 12 17 27 29 27 26
18 19 20 19 18 18 16 16 15 14 11 9 9 8 7 6 5 5 14 14 11 10 11 17 14 1 11 3 11 16 16 17 14 16 16 14 20 16 15 20 19 23 26 27 25
20 20 21 20 19 18 16 15 15 13 12 9 9 7 6 8 18 7 8 15 14 13 14 20 3 19 13 20 5 16 16 15 17 15 15 16 13 14 5 16 20 24 23 25 23
21 21 22 21 19 18 16 15 13 13 11 9 8 6 6 15 5 4 4 15 15 14 14 14 5 14 13 19 13 14 20 16 15 15 14 12 13 12 9 10 21 23 23 22 22
22 22 23 22 21 17 16 15 13 11 10 7 6 5 10 16 6 7 10 11 17 15 18 10 9 15 21 13 11 15 12 12 13 14 8 12 8 11 13 14 19 21 22 22 21
24 23 23 23 21 18 15 13 11 10 9 6 4 4 9 6 10 10 12 14 16 16 15 11 7 15 15 26 9 14 9 6 12 12 10 7 10 10 15 16 18 21 22 22 21
26 25 24 23 21 19 14 11 9 8 8 6 4 5 17 13 14 16 16 19 15 16 15 13 11 19 17 19 3 13 6 19 9 14 17 9 11 15 18 18 19 21 22 22 21
27 26 25 24 21 17 11 9 9 10 8 9 11 8 19 14 12 14 17 18 17 16 16 16 16 15 16 8 4 5 3 12 17 9 16 17 17 17 20 20 20 21 22 23 23
28 28 26 25 19 15 7 6 6 1 10 16 4 16 5 6 5 11 17 18 18 20 16 19 13 16 18 21 29 27 19 19 32 16 18 26 24 19 22 20 21 22 23 23 23
28 28 27 24 17 8 4 8 5 7 12 18 23 20 11 7 11 13 18 19 20 19 19 18 17 21 15 28 27 24 32 23 25 22 13 13 16 20 20 20 23 23 25 24 24
28 28 27 22 12 6 7 8 6 10 8 19 24 24 21 14 16 17 23 25 17 19 20 20 21 18 20 11 9 15 12 8 15 14 12 6 19 7 3 20 21 23 24 24 26
28 27 26 19 6 7 4 5 8 9 6 12 13 13 20 18 18 20 23 25 22 21 21 21 22 16 17 11 8 15 9 9 11 5 8 4 7 4 12 19 17 23 25 26 27
26 26 22 19 10 4 7 9 9 6 6 10 11 7 13 22 6 20 22 22 22 21 17 18 23 19 14 10 13 16 2 10 11 9 6 11 4 7 12 11 20 21 25 26 29
24 24 20 13 8 7 12 9 8 6 9 9 11 11 16 19 20 14 14 19 25 21 19 20 25 17 21 14 16 16 14 13 13 12 13 20 15 7 8 26 23 23 25 26 29
24 20 18 10 3 10 9 6 6 8 3 5 8 13 16 16 20 12 14 18 17 15 18 19 21 21 15 20 16 18 12 11 11 12 13 19 12 10 19 13 22 24 25 27 28
24 17 14 8 9 8 5 7 9 12 14 8 2 17 14 17 18 16 14 15 19 20 15 16 16 22 14 17 17 20 14 14 15 14 6 15 7 5 24 32 29 33 29 25 28
23 10 7 5 4 6 9 10 12 15 9 7 7 12 16 16 12 17 18 18 19 20 19 14 20 17 27 18 20 22 16 20 23 23 4 10 7 4 18 20 19 19 30 25 29
24 14 10 7 3 4 8 16 21 22 8 8 13 9 14 16 19 16 18 18 19 21 18 21 14 12 17 23 21 22 18 16 13 20 13 8 2 7 22 23 12 14 20 24 28
14 9 6 3 4 10 10 16 20 20 6 8 16 18 17 17 17 15 18 16 19 20 21 17 18 13 12 10 16 13 17 21 18 14 15 8 10 8 24 25 7 12 12 27 28
8 5 1 4 10 12 12 19 26 18 14 8 16 19 19 20 17 16 17 13 14 14 14 12 12 13 13 13 17 20 20 21 13 16 15 14 10 8 11 13 10 4 12 18 27
11 14 8 6 8 10 16 21 19 12 13 18 16 17 19 19 18 21 14 16 13 12 12 15 12 12 15 17 15 17 19 17 19 19 19 14 12 8 2 9 20 3 14 17 18
8 5 4 6 12 14 16 17 16 11 16 16 18 20 18 17 18 18 16 11 12 11 5 5 11 14 14 13 16 19 18 19 22 14 17 18 17 9 12 20 11 3 19 21 20
5 6 12 7 11 15 13 16 16 16 21 12 12 14 18 18 16 19 19 15 15 13 6 10 16 17 17 15 11 9 19 17 22 21 18 18 16 12 14 12 8 11 8 21 15
9 9 17 22 22 16 14 14 16 17 18 18 17 15 15 16 21 17 17 16 16 17 15 15 15 18 19 17 13 6 15 14 18 20 18 18 13 9 7 7 8 3 6 16 16
11 13 11 12 15 14 13 14 15 15 12 16 15 17 16 9 25 22 23 22 21 20 14 19 16 16 16 17 14 9 12 14 17 20 15 15 12 11 7 3 9 5 3 11 25
Wind_Direction
342 337 337 337 336 336 336 336 332 333 330 325 320 315 299 289 273 261 286 176 201 230 215 194 220 233 236 251 268 186 298 111 117 131 139 150 145 114 116 128 149 127 139 146 152
339 335 334 333 332 332 330 331 332 329 328 324 320 317 305 294 277 255 239 238 223 201 175 206 211 220 241 81 285 115 164 77 86 118 136 148 125 126 138 153 117 125 130 145 152
336 332 332 330 329 328 328 327 327 330 327 322 315 319 310 301 291 246 217 224 222 202 215 246 245 220 191 133 214 75 90 108 112 123 138 143 131 155 140 139 144 134 147 153 157
337 331 328 327 326 324 325 322 324 326 325 319 307 310 303 278 248 160 188 207 212 197 237 266 251 292 312 129 73 111 113 102 123 134 132 149 154 160 180 141 140 147 155 158 166
340 335 329 326 325 322 322 319 319 321 321 317 308 302 294 256 258 230 225 205 212 219 242 267 68 321 238 64 246 117 117 127 130 149 139 147 166 148 171 149 153 153 162 166 172
343 336 331 328 324 321 318 314 314 315 315 317 309 286 274 253 161 219 218 213 211 216 247 269 143 218 288 115 240 130 126 135 153 153 144 159 143 170 152 178 156 162 171 175 178
347 341 336 330 325 320 315 310 309 306 309 311 316 275 263 241 207 211 214 220 213 221 249 261 290 301 9 146 212 109 127 153 153 157 174 136 135 227 161 166 164 171 176 179 183
347 344 338 331 326 321 312 305 302 300 298 297 300 281 256 217 229 229 219 221 220 231 249 293 285 280 94 273 237 188 41 165 157 176 150 207 166 170 167 170 171 174 180 181 185
348 344 340 333 328 321 315 305 296 285 280 271 271 262 264 224 238 223 212 212 217 229 244 258 277 265 154 223 44 46 119 265 227 194 145 87 305 160 173 179 178 180 181 184 188
346 343 342 334 330 326 321 307 281 266 265 260 240 265 234 230 218 205 205 210 214 221 235 238 246 251 246 219 100 299 9 241 270 247 160 153 230 228 182 185 181 185 184 189 190
344 342 342 336 334 331 341 316 301 200 218 230 226 230 131 199 149 199 201 206 215 216 221 224 240 241 244 142 174 197 209 212 236 212 230 181 204 173 184 192 183 189 189 193 194
343 341 342 339 334 336 6 339 20 320 294 255 250 244 251 198 210 218 200 205 210 214 220 236 222 248 257 131 189 200 203 232 191 187 204 196 229 171 173 195 192 193 191 195 193
340 339 340 342 341 12 331 305 318 330 271 274 231 228 224 216 240 205 201 207 213 223 220 232 233 231 263 214 190 231 265 137 147 225 217 132 252 205 156 189 208 201 199 195 193
337 337 339 343 341 325 303 312 318 323 279 235 184 220 213 213 232 240 195 211 230 223 229 233 247 227 236 250 223 252 257 180 200 242 223 185 264 354 13 325 205 210 207 193 194
334 333 338 334 317 320 311 312 310 296 290 138 141 147 201 195 214 205 197 209 230 229 230 238 243 254 262 247 229 269 287 275 285 243 180 199 186 303 354 301 269 223 212 204 189
329 330 329 326 317 303 309 307 301 236 260 158 141 195 203 209 234 188 195 212 224 239 242 250 258 225 251 233 259 258 259 229 250 272 267 260 167 183 180 222 275 211 221 206 193
325 322 312 292 221 304 317 290 236 245 62 211 183 178 208 193 229 157 201 201 219 223 237 235 246 262 227 247 230 249 257 262 252 235 245 250 84 175 176 185 237 255 197 204 202
327 321 310 285 265 300 293 246 249 267 250 95 324 168 197 209 218 173 204 213 218 226 234 220 219 234 228 238 251 237 229 242 249 245 267 9 105 149 199 200 226 207 182 194 195
329 328 290 322 308 249 237 229 241 247 317 348 211 264 198 211 209 203 201 214 214 222 244 242 221 209 215 208 221 247 216 243 266 280 89 261 83 116 241 233 207 191 162 178 188
331 323 251 205 248 210 240 251 275 303 331 306 288 240 255 208 211 223 208 220 228 215 223 258 278 291 195 210 206 229 253 241 234 263 281 288 88 216 218 229 225 166 163 165 183
332 289 148 216 253 241 242 256 258 272 234 279 270 279 262 256 207 217 248 220 213 239 214 230 256 243 200 194 227 211 237 255 272 267 255 199 254 208 192 224 160 154 172 164 175
328 280 86 271 244 239 249 253 267 292 306 273 274 284 291 293 276 220 233 229 188 219 205 223 251 254 191 226 224 241 218 234 247 257 273 279 114 135 207 297 161 226 135 159 164
315 289 277 259 262 253 256 255 257 278 279 282 272 262 276 277 281 290 213 237 169 207 196 210 230 257 267 204 189 215 242 248 234 254 265 274 263 116 140 288 286 215 135 128 159
306 306 226 236 257 282 293 299 317 309 273 279 297 298 275 270 272 277 269 199 151 195 37 316 258 220 243 236 199 196 211 227 247 230 242 258 270 126 136 271 283 271 150 154 167
275 339 352 299 323 342 328 319 304 297 296 282 272 269 281 285 269 263 270 267 174 163 195 240 250 270 262 276 268 208 199 210 239 244 247 234 250 245 183 172 86 81 89 134 164
340 347 328 299 291 280 272 267 269 277 265 273 286 273 278 256 262 331 341 331 328 168 206 216 238 264 278 285 265 226 258 200 221 244 260 272 280 310 29 99 154 180 155 157 172
348 323 307 294 300 295 283 283 298 315 272 296 291 293 287 317 334 320 302 296 288 294 217 213 226 237 249 247 269 210 245 241 202 219 235 250 263 279 306 18 57 48 279 219 175